Location: Easter Hill Village
(37.9235°N, 122.3444°W)
Time: 14:23:14
(UTC+00:00)

Cosmos 1315 Rocket - Pass Details

Date: 16 September 2019
Orbit: 529 x 569 km, 81.2° (Epoch: 18 October)

Event Time Altitude Azimuth Distance (km) Brightness Sun altitude
Rises 12:40:03 0° 188° (S) 2,740 6.1 -14.8°
Reaches altitude 10° 12:42:13 10° 189° (S) 1,853 5.3 -14.4°
Maximum altitude 12:46:19 87° 280° (W) 574 2.8 -13.6°
Drops below altitude 10° 12:50:28 10° 8° (N) 1,877 5.8 -12.8°
Sets 12:52:40 0° 9° (N) 2,779 6.7 -12.4°
